Theta_e
350 350 349 351 348 350 352 352 351 347 345 347 345 348 352 351 345 349 351 352 352 352 352 353 351 351 353 352 348 350 346 346 347 351 351 349 344 346 346 344 345 347 348
350 351 351 352 352 350 350 348 346 349 347 345 347 347 349 349 352 351 352 350 350 351 352 354 353 352 351 351 347 349 345 344 347 344 349 349 348 343 340 348 349 349 348
349 350 351 350 350 350 351 350 352 352 350 348 348 349 349 352 351 353 351 353 353 352 353 352 353 352 352 347 346 348 346 343 344 344 346 346 343 344 344 349 348 347 348
347 346 348 349 347 344 351 352 351 352 351 352 352 351 350 351 348 353 353 352 353 353 353 353 353 353 351 341 343 345 343 344 344 345 336 340 343 347 348 345 348 344 346
348 349 348 345 349 346 351 350 349 352 351 352 351 351 352 351 349 348 349 353 353 352 351 351 351 350 351 340 341 343 344 346 346 343 345 347 347 348 349 349 347 344 345
351 352 351 351 352 349 352 351 350 349 352 351 350 352 352 351 352 352 353 352 352 351 351 352 352 351 334 343 342 344 344 345 340 338 343 342 344 348 348 348 348 347 347
350 351 352 349 349 350 352 352 352 352 352 351 351 352 351 351 352 352 352 352 351 349 349 352 349 350 341 340 344 345 343 345 340 337 347 342 346 347 347 348 347 348 344
349 350 351 351 351 352 353 352 352 352 352 352 352 350 351 352 351 351 352 352 352 351 351 350 351 351 341 337 342 341 346 345 339 338 340 345 345 348 348 348 347 346 343
349 350 352 352 353 353 353 352 352 352 351 350 351 347 350 350 349 351 351 351 351 349 350 349 352 346 335 335 339 344 343 341 342 346 347 346 344 345 347 345 347 344 343
347 349 349 350 351 350 352 352 352 349 345 342 346 349 345 348 349 350 347 350 345 349 351 351 344 333 333 338 340 342 343 342 342 342 338 344 345 345 347 345 348 342 342
349 349 349 351 350 349 350 351 348 348 342 342 348 345 347 349 348 350 347 350 349 347 349 345 334 340 335 342 343 344 345 347 344 344 341 344 347 344 344 346 345 339 337
349 350 351 351 351 349 349 349 347 348 349 349 348 347 348 346 343 346 342 343 342 342 345 343 332 338 345 345 342 343 345 344 344 345 340 346 341 346 347 347 342 336 339
349 350 349 350 350 349 347 352 346 351 348 346 347 349 345 338 339 345 343 347 342 345 347 346 337 341 345 346 347 339 340 343 344 344 341 345 341 346 348 343 346 342 338
347 349 349 349 349 348 348 351 344 348 345 345 348 342 347 346 346 330 348 345 339 340 344 347 347 346 345 340 340 340 341 344 344 338 339 340 338 342 346 337 340 339 340
349 346 346 348 346 348 348 347 347 345 347 344 347 346 344 344 347 343 347 344 347 347 343 344 346 348 341 344 339 339 341 342 343 337 328 330 332 335 341 341 336 335 338
348 345 347 348 346 350 346 347 346 346 345 347 348 347 347 343 345 346 348 343 342 343 345 341 347 345 346 342 343 341 341 342 344 341 336 330 329 330 331 333 333 333 334
345 347 348 345 347 352 349 351 351 345 347 347 344 350 348 349 346 345 349 349 348 348 350 342 348 347 345 346 342 342 343 343 343 346 344 343 337 337 338 337 336 336 335
345 346 346 345 345 349 351 354 351 346 347 348 349 348 351 352 351 349 347 349 349 350 350 346 348 346 344 344 344 345 345 344 345 346 346 348 348 346 339 338 336 338 338
347 346 346 345 344 352 346 352 350 350 346 347 349 350 349 349 351 349 349 349 352 350 342 348 343 347 348 346 347 344 344 343 346 345 343 345 341 348 349 345 342 341 335
346 347 347 345 345 349 347 349 349 350 350 351 350 350 351 351 351 347 348 348 344 350 347 350 350 343 346 344 344 345 344 341 343 344 344 345 343 344 349 347 348 348 343
347 348 348 348 346 350 348 349 350 350 351 351 349 350 352 351 352 348 349 350 349 346 344 349 346 349 349 344 344 345 339 341 342 343 345 345 344 347 345 347 349 349 348
347 348 349 351 347 351 346 352 350 352 351 350 352 353 352 351 352 352 348 351 349 350 351 351 351 348 348 340 347 350 349 344 344 342 341 342 343 345 345 346 346 346 347
346 348 350 352 348 350 351 350 350 348 345 351 353 354 352 352 352 353 353 349 350 347 351 353 351 346 345 342 344 348 352 354 350 341 340 342 340 343 343 341 344 345 347
345 347 350 353 350 347 351 350 351 348 349 352 352 352 351 352 351 353 352 349 349 349 349 350 350 346 347 350 343 342 345 346 356 352 341 339 342 342 342 344 343 345 345
345 345 351 352 354 348 350 353 351 351 349 348 352 351 353 353 353 353 352 352 350 350 350 351 349 347 351 351 346 347 342 348 346 352 353 343 341 343 343 345 344 346 347
342 343 350 353 354 354 348 351 351 352 347 350 352 353 353 353 353 353 351 353 353 345 352 352 352 349 350 349 345 347 347 345 346 351 353 348 345 343 344 345 345 346 348
Wind_Speed
18 16 16 15 16 15 14 14 14 14 13 13 12 13 13 14 16 16 16 17 18 18 19 19 20 20 19 20 20 20 22 23 24 21 21 21 20 19 18 21 19 18 18
22 18 18 17 16 16 15 15 14 14 13 13 12 12 11 13 14 14 15 16 16 17 17 18 18 17 18 18 18 19 20 19 21 25 24 23 21 20 19 20 18 18 18
24 20 17 17 16 16 16 15 14 14 14 14 14 13 12 13 13 14 14 14 15 16 17 17 17 17 17 18 19 18 18 16 18 23 20 19 20 19 20 18 18 18 19
24 21 18 17 16 16 15 15 13 13 13 14 13 14 12 12 13 12 13 14 14 16 17 17 17 17 15 18 18 18 15 13 12 7 20 19 18 18 17 16 17 19 18
27 23 19 17 16 16 14 13 12 13 13 13 13 14 13 13 12 12 14 14 14 16 18 17 17 16 15 17 18 16 15 11 12 22 23 20 17 15 15 16 16 17 18
25 21 19 17 15 14 13 12 13 12 13 13 14 13 14 13 13 14 14 14 14 15 17 16 16 16 17 17 20 18 17 25 21 22 17 16 17 15 16 16 16 17 17
22 20 17 16 15 14 13 12 13 13 13 14 13 14 14 14 14 13 13 14 14 15 16 16 15 15 15 16 19 21 22 20 22 22 18 15 15 17 15 16 15 15 16
25 21 18 16 16 14 13 13 13 13 13 14 13 13 14 14 13 13 13 13 14 15 14 15 13 13 13 17 17 15 13 13 15 18 15 16 15 15 14 15 15 15 15
26 23 19 16 14 14 14 13 13 12 12 13 13 13 15 14 14 13 13 13 14 14 15 15 12 13 15 17 19 20 18 19 21 20 15 15 12 13 12 13 13 13 14
26 24 22 17 16 15 13 13 13 12 13 12 13 12 14 16 14 14 13 14 16 16 15 14 14 15 18 19 18 16 16 17 21 14 14 14 12 12 12 11 12 12 12
23 25 24 22 21 17 14 12 12 12 14 13 12 11 12 14 13 12 12 14 15 13 15 17 16 10 11 13 11 8 5 12 21 15 13 12 11 10 10 11 10 9 10
26 23 27 20 19 19 14 16 13 12 10 9 11 13 8 16 14 12 13 15 16 15 18 13 14 12 9 5 4 2 5 19 19 14 14 12 9 9 9 8 7 8 8
24 22 19 19 17 18 13 20 17 18 16 10 6 4 13 15 16 13 10 6 11 14 14 7 8 8 3 8 8 5 12 18 20 15 13 10 8 8 6 6 6 6 6
28 25 19 19 15 18 10 11 18 18 15 13 11 13 12 13 18 10 11 5 10 9 5 4 7 11 7 15 11 6 11 18 17 13 11 8 7 7 6 5 4 4 4
29 20 16 19 11 12 10 19 14 21 17 12 9 9 5 11 17 16 18 10 5 6 11 13 9 12 14 9 11 8 9 15 14 11 10 8 6 6 5 3 3 2 1
30 25 20 15 12 7 14 13 11 18 14 15 12 8 6 11 10 7 10 7 5 12 6 7 9 13 13 11 10 12 10 4 9 9 9 10 8 6 5 3 2 0 1
20 25 21 16 10 13 11 11 4 9 14 18 13 7 9 6 8 10 4 13 7 5 7 3 10 8 12 9 7 8 11 11 6 4 7 7 10 8 8 6 4 3 2
19 22 18 19 15 11 10 5 9 12 15 13 15 8 4 5 5 3 9 2 9 7 3 2 6 13 10 10 11 8 8 5 5 3 9 3 3 6 8 7 5 4 4
20 21 14 21 16 18 11 7 9 13 11 6 13 11 7 5 3 3 8 5 4 6 7 5 7 3 4 4 5 7 11 7 8 8 4 4 5 6 3 3 2 5 7
20 19 13 19 19 13 12 9 9 8 8 10 11 10 6 4 7 3 5 7 9 7 7 9 8 7 5 3 3 4 5 5 6 7 9 11 4 9 7 2 5 3 4
22 20 14 21 20 15 14 14 10 10 7 6 5 9 8 4 9 8 6 3 6 4 10 3 7 1 3 4 6 1 4 6 7 9 12 15 5 6 4 3 1 1 1
23 21 18 20 21 16 16 15 14 11 11 12 11 10 7 4 4 7 5 5 3 6 2 1 2 5 6 5 5 6 1 9 10 6 5 6 2 7 8 3 3 2 3
26 23 21 20 23 20 16 11 11 8 12 11 12 11 9 8 4 5 6 7 4 5 3 3 3 4 6 3 3 3 3 2 2 7 9 7 7 5 4 4 6 2 2
28 26 23 20 23 23 14 9 12 21 13 13 16 12 12 9 7 7 5 4 5 5 5 4 4 2 7 8 3 4 3 1 1 2 10 3 6 6 5 8 10 7 3
29 26 25 22 22 20 18 12 12 8 10 10 9 15 11 12 8 8 9 9 7 7 5 6 3 3 6 8 8 8 3 5 2 1 2 6 13 13 4 2 4 9 2
29 28 27 24 22 20 20 14 16 6 5 4 13 15 14 13 12 11 9 8 6 7 7 7 5 1 4 4 8 8 8 3 7 7 3 5 10 4 7 5 0 1 2
Wind_Direction
133 129 124 119 120 116 108 105 103 96 90 87 87 90 81 82 80 85 87 86 89 86 88 89 86 87 86 87 89 91 92 92 96 94 88 83 91 84 90 87 79 78 77
131 130 127 122 114 113 110 106 101 94 89 89 89 90 94 88 86 91 87 92 89 92 94 92 93 97 95 94 100 96 95 96 106 95 89 81 81 85 91 85 79 75 71
131 131 127 125 117 113 107 99 99 95 91 91 93 92 92 89 90 90 93 93 96 97 94 95 98 102 99 104 106 101 100 99 107 96 85 83 80 79 83 79 78 76 71
131 131 127 122 114 110 104 102 101 98 94 92 87 96 92 97 101 99 101 100 101 101 101 102 100 101 104 107 106 104 95 96 101 100 96 86 83 78 81 79 83 75 71
132 127 130 126 117 111 109 108 107 101 93 97 92 90 96 101 100 106 108 106 106 106 105 104 101 101 102 111 108 97 78 61 109 89 92 85 84 80 83 80 77 75 76
119 124 127 124 119 112 110 111 107 103 101 99 101 99 101 104 109 108 112 111 110 110 110 106 105 106 109 115 105 82 83 84 95 85 85 86 93 88 80 79 79 75 74
118 125 127 126 123 119 113 115 110 106 103 102 102 104 103 104 110 114 112 112 118 119 115 111 105 105 115 116 106 94 96 85 90 90 89 91 87 86 82 80 78 80 73
129 121 124 127 124 121 117 115 115 112 108 109 109 108 107 109 114 116 114 116 109 110 108 108 112 108 109 114 119 108 102 96 90 102 99 95 87 84 85 82 80 78 76
127 128 129 125 124 116 116 115 114 115 115 113 116 120 121 114 115 117 121 111 112 116 111 105 110 104 101 108 122 111 105 108 99 96 90 91 91 89 84 84 86 78 80
132 132 134 135 132 122 116 120 122 122 121 123 123 124 122 120 123 124 121 107 111 108 117 106 88 90 104 114 125 124 122 117 110 103 99 100 90 96 87 93 93 84 84
116 128 125 125 133 127 123 127 127 131 124 123 123 128 130 116 119 119 130 105 118 129 120 110 100 114 129 124 118 107 146 90 104 98 103 104 104 100 95 95 99 84 85
127 136 127 134 140 141 131 134 131 128 147 120 127 122 120 129 116 117 131 127 134 138 116 115 90 141 121 177 139 92 125 130 106 107 109 112 108 106 100 100 88 84 83
109 117 120 141 141 146 145 151 134 149 120 122 89 189 137 118 126 116 121 123 138 124 128 161 150 129 123 195 163 110 109 126 113 116 116 112 109 118 114 99 91 79 77
118 148 147 133 153 154 105 164 138 145 133 134 123 122 138 138 129 102 141 178 197 155 174 216 197 99 59 78 98 69 89 122 119 108 119 133 127 130 124 109 104 91 77
125 131 138 109 137 91 107 109 139 126 127 132 124 120 128 101 132 128 166 158 72 86 51 95 169 115 99 91 103 68 65 78 116 99 113 125 129 135 138 126 108 105 86
141 141 125 122 128 120 120 97 111 164 138 136 132 112 128 120 117 131 92 92 252 122 149 97 109 113 115 100 84 119 107 76 75 142 114 124 116 111 105 112 107 79 283
138 127 131 128 150 130 143 130 112 128 117 120 135 93 119 113 127 110 114 131 124 98 83 22 48 125 113 100 132 108 125 120 92 120 179 143 125 115 97 70 65 51 27
142 129 157 148 148 137 148 152 103 154 119 136 141 139 140 127 157 111 122 157 137 132 150 359 39 128 104 120 115 146 126 133 141 100 139 235 170 156 104 69 62 60 44
135 141 182 138 153 150 149 159 110 119 140 136 140 161 174 184 234 184 135 134 142 120 127 102 118 66 147 148 259 149 166 156 173 153 106 150 150 204 152 67 35 55 50
146 148 175 144 154 160 161 161 156 144 166 141 153 178 180 175 111 258 230 114 123 84 121 90 125 119 132 357 309 221 171 126 175 168 180 170 121 161 176 343 304 222 58
153 161 176 153 157 156 175 174 169 180 157 151 183 173 183 166 141 171 268 137 143 134 96 89 96 310 163 36 336 247 154 187 176 194 213 163 160 187 170 199 338 207 292
156 167 173 158 166 178 191 189 174 176 183 186 173 174 178 185 176 136 113 357 157 111 157 152 355 340 302 44 10 333 304 223 212 158 111 164 173 190 166 165 207 164 264
159 169 173 170 176 196 195 175 146 185 234 203 165 179 186 175 179 127 176 165 134 206 206 180 89 4 39 24 105 1 25 344 351 145 158 124 161 187 164 197 183 224 273
163 169 177 180 178 201 209 200 170 170 191 213 181 172 175 178 174 144 154 138 132 226 175 192 148 110 270 300 151 95 115 37 91 23 131 166 211 154 218 209 188 187 271
163 171 173 183 182 196 203 212 187 170 186 175 203 160 179 171 183 184 180 189 159 167 234 191 110 197 16 358 340 297 33 311 239 278 196 198 215 185 142 67 107 197 184
165 171 171 181 189 196 201 211 204 176 186 199 170 167 195 177 186 188 195 189 160 172 164 178 208 267 323 325 335 356 6 59 322 325 30 180 160 171 189 120 139 129 247